Flight Track Log - Related Links

Times and Time Zones

All times are in EDT time to prevent confusion due to time zone crossing. See the TRS719 flight status page for this flight to view local times or setup timezone preferences in your user account.

Time Position Orientation Groundspeed Altitude Reporting Facility
EDT Latitude Longitude Course Direction KTS MPH feet Rate Location/Type
Sat 07:38:25 PM 30.8608 -107.0442 17° North 420 483 40,000  Level Albuquerque Center
Sat 07:39:27 PM 30.9725 -107.0047 17° North 420 483 40,000  Level Albuquerque Center
Sat 07:40:28 PM 31.0850 -106.9644 17° North 421 484 40,000  Level Albuquerque Center
Sat 07:41:29 PM 31.1953 -106.9244 17° North 418 481 40,000  Level Albuquerque Center
Sat 07:42:31 PM 31.3089 -106.8850 17° North 422 486 40,000  Level Albuquerque Center
Sat 07:43:32 PM 31.4189 -106.9064 351° North 401 461 40,000  Level Albuquerque Center
Sat 07:44:33 PM 31.5275 -106.9367 347° North 402 463 40,000  Level Albuquerque Center
Sat 07:45:34 PM 31.6589 -106.9747 346° North 404 465 40,000  Level Albuquerque Center
Sat 07:46:36 PM 31.7694 -107.0058 347° North 407 468 40,000  Level Albuquerque Center
Sat 07:47:37 PM 31.8800 -107.0369 347° North 409 471 40,000  Level Albuquerque Center
Sat 07:48:38 PM 31.9911 -107.0697 346° North 411 473 40,000  Level Albuquerque Center
Sat 07:49:40 PM 32.1022 -107.1019 346° North 412 474 40,000  Level Albuquerque Center
Sat 07:50:41 PM 32.2292 -107.1386 346° North 413 475 40,000  Level Albuquerque Center
Sat 07:51:42 PM 32.3411 -107.1706 346° North 413 475 40,000  Level Albuquerque Center
Sat 07:52:44 PM 32.4403 -107.2028 345° North 415 478 40,000  Level Albuquerque Center
Sat 07:53:45 PM 32.5517 -107.2353 346° North 416 479 40,000  Level Albuquerque Center
Sat 07:54:47 PM 32.6619 -107.2667 347° North 413 475 40,000  Level Albuquerque Center
Sat 07:55:48 PM 32.7808 -107.3031 346° North 409 471 40,000  Level Albuquerque Center
Sat 07:56:50 PM 32.8906 -107.3358 346° North 408 470 40,000 -49 Level Albuquerque Center
Sat 07:57:51 PM 33.0008 -107.3658 347° North 407 468 39,900  Descending Albuquerque Center
Sat 07:58:52 PM 33.1172 -107.3497 North 420 483 40,000 49 Climbing Albuquerque Center
Sat 07:59:54 PM 33.2586 -107.3247 North 424 488 40,000  Level Albuquerque Center
Sat 08:00:56 PM 33.3761 -107.3028 North 426 490 40,000  Level Albuquerque Center
Sat 08:01:57 PM 33.4944 -107.2822 North 428 493 40,000  Level Albuquerque Center
Sat 08:02:59 PM 33.6111 -107.2619 North 425 489 40,000  Level Albuquerque Center
Sat 08:04:00 PM 33.7264 -107.2406 North 420 483 40,000  Level Albuquerque Center
Sat 08:05:01 PM 33.8433 -107.2183 North 423 487 40,000  Level Albuquerque Center
Sat 08:06:03 PM 33.9586 -107.1981 North 419 482 40,000  Level Albuquerque Center
Sat 08:07:05 PM 34.0717 -107.1764 North 414 476 40,000  Level Albuquerque Center
Sat 08:08:06 PM 34.2053 -107.1497 North 407 468 40,000 195 Level Albuquerque Center
Sat 08:09:08 PM 34.3142 -107.1322 North 409 471 40,400 488 Climbing Albuquerque Center
Sat 08:10:09 PM 34.4311 -107.1108 North 419 482 41,000 293 Climbing Albuquerque Center
Sat 08:11:11 PM 34.5497 -107.0875 North 427 491 41,000  Level Albuquerque Center
Sat 08:12:12 PM 34.6661 -107.0653 North 424 488 41,000  Level Albuquerque Center
Sat 08:13:14 PM 34.7819 -107.0444 North 421 484 41,000  Level Albuquerque Center
Sat 08:14:15 PM 34.9111 -107.0194 North 423 487 41,000  Level Albuquerque Center
Sat 08:15:17 PM 35.0381 -106.9961 North 414 476 41,000  Level Albuquerque Center
Sat 08:16:19 PM 35.1469 -106.9744 North 413 475 41,000  Level Albuquerque Center
Sat 08:17:20 PM 35.2739 -106.9514 North 413 475 41,000  Level Albuquerque Center
Sat 08:18:22 PM 35.3875 -106.9308 North 419 482 41,000  Level Albuquerque Center
Sat 08:19:23 PM 35.5044 -106.9083 North 425 489 41,000  Level Albuquerque Center
Sat 08:20:25 PM 35.6194 -106.8864 North 419 482 41,000  Level Albuquerque Center
Sat 08:21:27 PM 35.7353 -106.8644 North 420 483 41,000 -146 Level Albuquerque Center
Sat 08:22:28 PM 35.8639 -106.8392 North 419 482 40,700 -585 Descending Albuquerque Center
Sat 08:23:30 PM 35.9664 -106.8203 North 418 481 39,800 -878 Descending Albuquerque Center
Sat 08:24:31 PM 36.0758 -106.7989 North 406 467 38,900 -976 Descending Albuquerque Center
Sat 08:25:33 PM 36.1958 -106.7761 North 388 447 37,800 -1,024 Descending Albuquerque Center
Sat 08:26:34 PM 36.2967 -106.7561 North 383 441 36,800 -956 Descending Albuquerque Center
Sat 08:27:26 PM 36.4014 -106.7353 North 396 456 36,000 -425 Descending Denver Center
Sat 08:28:27 PM 36.5081 -106.7142 North 404 465 36,000  Level Denver Center
Sat 08:29:28 PM 36.6147 -106.6914 10° North 406 467 36,000  Level Denver Center
Sat 08:30:29 PM 36.7417 -106.6686 North 410 472 36,000  Level Denver Center
Sat 08:31:31 PM 36.8506 -106.6447 10° North 412 474 36,000  Level Denver Center
Sat 08:32:32 PM 36.9722 -106.6064 14° North 407 468 36,000  Level Denver Center
Sat 08:33:33 PM 37.0775 -106.5767 13° North 403 464 36,000  Level Denver Center
Sat 08:34:34 PM 37.1786 -106.5442 14° North 394 453 36,000  Level Denver Center
Sat 08:35:35 PM 37.2994 -106.5058 14° North 400 460 36,000  Level Denver Center
Sat 08:36:36 PM 37.4056 -106.4758 13° North 402 463 36,000  Level Denver Center
Sat 08:37:38 PM 37.5281 -106.4375 14° North 404 465 36,000  Level Denver Center
Sat 08:38:39 PM 37.6331 -106.4061 13° North 404 465 36,000  Level Denver Center
Sat 08:39:40 PM 37.7372 -106.3722 14° North 401 461 36,000  Level Denver Center
Sat 08:40:41 PM 37.8583 -106.3361 13° North 406 467 36,000  Level Denver Center
Sat 08:41:42 PM 37.9658 -106.3031 14° North 411 473 36,000  Level Denver Center
Sat 08:42:43 PM 38.0800 -106.2656 14° North 419 482 36,000 -148 Level Denver Center
Sat 08:43:44 PM 38.1889 -106.2053 24° Northeast 420 483 35,700 -634 Descending Denver Center
Sat 08:44:46 PM 38.2986 -106.1422 24° Northeast 420 483 34,700 -976 Descending Denver Center
Sat 08:45:47 PM 38.4231 -106.0722 24° Northeast 435 501 33,700 -984 Descending Denver Center
Sat 08:46:48 PM 38.5294 -106.0125 24° Northeast 435 501 32,700 -934 Descending Denver Center
Sat 08:47:49 PM 38.6364 -105.9525 24° Northeast 442 509 31,800 -1,033 Descending Denver Center
Sat 08:48:50 PM 38.7492 -105.8875 24° Northeast 439 505 30,600 -1,623 Descending Denver Center
Sat 08:49:51 PM 38.8553 -105.8169 27° Northeast 426 490 28,500 -2,164 Descending Denver Center
Sat 08:50:52 PM 38.9422 -105.7078 44° Northeast 427 491 26,200 -2,244 Descending Denver Center
Sat 08:51:54 PM 39.0333 -105.5894 45° Northeast 418 481 23,900 -2,049 Descending Denver Center
Sat 08:52:55 PM 39.1097 -105.4939 44° Northeast 404 465 22,000 -2,016 Descending Denver Center
Sat 08:53:56 PM 39.1911 -105.3931 44° Northeast 396 456 19,800 -1,721 Descending Denver Center
Sat 08:54:57 PM 39.2619 -105.2806 51° Northeast 377 434 18,500 -1,721 Descending Denver Center
Sat 08:55:58 PM 39.2875 -105.1517 76° East 371 427 16,300 -1,918 Descending Denver Center
Sat 08:56:59 PM 39.3114 -105.0183 77° East 375 432 14,600 -1,033 Descending Denver Center
Sat 08:58:00 PM 39.3333 -104.9008 76° East 352 405 14,200 -738 Descending Denver Center
Sat 08:59:01 PM 39.3594 -104.7919 73° East 299 344 13,100 -927 Descending Denver Center
Sat 09:00:03 PM 39.4175 -104.7306 39° Northeast 268 308 12,300 -732 Descending Denver Center
Sat 09:01:04 PM 39.4769 -104.6814 33° Northeast 254 292 11,600 -639 Descending Denver Center
Sat 09:02:05 PM 39.5458 -104.6642 11° North 249 287 11,000 -934 Descending Denver Center
Sat 09:03:06 PM 39.6114 -104.6642 360° North 237 273 9,700 -1,279 Descending Denver Center
Sat 09:04:07 PM 39.6761 -104.6628 North 234 269 8,400 -1,131 Descending Denver Center
Sat 09:05:08 PM 39.7308 -104.6622 360° North 206 237 7,400 -927 Descending Denver Center
Sat 09:06:10 PM 39.7783 -104.6614 North 159 183 6,500 -829 Descending Denver Center
Sat 09:07:11 PM 39.8150 -104.6608 North 133 153 5,700 -541 Descending Denver Center
Sat 09:08:12 PM 39.8456 -104.6614 359° North 120 138 5,400 -295 Descending Denver Center
Sat 09:10:00 PM 39.8500 -104.6667 North  Level FlightAware Approximate
Sat 09:17:00 PM 39.8617 -104.6732 North  Level Estimated

Login

Don't have an account? Register now (free) for customized features, flight alerts, and more!